DAL2745 KMSP-KTPA

Flight info

Callsign DAL2745
Flight time N/A
Altitude 35000
Route ZMBRO7 ODI J30 BRIBE/N0448F340 EDENS/N0448F350 ENL PLESS Q19 HITMN ACORI MAATY5
Aircraft A321/M-SDE3FGHIRWY/LB1

Departure

Time 2026-04-30 14:34
Airport Minneapolis–Saint Paul International Airport / Wold–Chamberlain Field (KMSP)

Arrival

Time N/A
Airport Tampa International Airport (KTPA)
Time Latitude Longitude Altitude Speed Heading
2026-04-30 14:15 44.87974 -93.20789 825 ft 0 kts 25°
2026-04-30 14:25 44.87939 -93.20813 822 ft 4 kts 25°
2026-04-30 14:25 44.87898 -93.20846 822 ft 4 kts 57°
2026-04-30 14:26 44.87905 -93.20901 820 ft 1 kts 121°
2026-04-30 14:30 44.87903 -93.20898 822 ft 2 kts 121°
2026-04-30 14:31 44.87864 -93.20807 822 ft 8 kts 121°
2026-04-30 14:31 44.87812 -93.20690 825 ft 10 kts 124°
2026-04-30 14:31 44.87747 -93.20632 826 ft 13 kts 184°
2026-04-30 14:32 44.87606 -93.20410 825 ft 19 kts 120°
2026-04-30 14:32 44.87541 -93.20259 823 ft 17 kts 121°
2026-04-30 14:32 44.87481 -93.20122 823 ft 15 kts 121°
2026-04-30 14:33 44.87410 -93.20092 827 ft 10 kts 201°
2026-04-30 14:33 44.87397 -93.20225 826 ft 14 kts 302°
2026-04-30 14:33 44.87523 -93.20512 823 ft 68 kts 301°
2026-04-30 14:34 44.87886 -93.21352 825 ft 130 kts 301°
2026-04-30 14:34 44.88443 -93.22641 877 ft 172 kts 304°
2026-04-30 14:34 44.89044 -93.24076 1580 ft 169 kts 302°
2026-04-30 14:34 44.89341 -93.25712 2294 ft 179 kts 274°
2026-04-30 14:35 44.88519 -93.28596 2834 ft 216 kts 230°
2026-04-30 14:35 44.86904 -93.30588 3055 ft 246 kts 223°
2026-04-30 14:35 44.85556 -93.32163 3437 ft 265 kts 221°
2026-04-30 14:36 44.83998 -93.33609 4148 ft 272 kts 205°
2026-04-30 14:36 44.82133 -93.34229 4933 ft 279 kts 182°
2026-04-30 14:36 44.80208 -93.33794 5678 ft 285 kts 158°
2026-04-30 14:36 44.78527 -93.32308 6387 ft 288 kts 133°
2026-04-30 14:37 44.77294 -93.30085 7094 ft 290 kts 122°
2026-04-30 14:37 44.76124 -93.27734 7808 ft 294 kts 122°
2026-04-30 14:37 44.74961 -93.25388 8492 ft 298 kts 123°
2026-04-30 14:37 44.73764 -93.22983 9200 ft 302 kts 123°
2026-04-30 14:38 44.72548 -93.20548 9901 ft 306 kts 124°
2026-04-30 14:38 44.71301 -93.18059 10317 ft 320 kts 124°
2026-04-30 14:38 44.69974 -93.15415 10454 ft 342 kts 124°
2026-04-30 14:38 44.68565 -93.12604 10686 ft 359 kts 124°
2026-04-30 14:39 44.67129 -93.09740 11232 ft 365 kts 124°
2026-04-30 14:39 44.65660 -93.06809 11855 ft 368 kts 125°
2026-04-30 14:39 44.64171 -93.03849 12499 ft 373 kts 125°
2026-04-30 14:40 44.61145 -92.97834 13750 ft 381 kts 126°
2026-04-30 14:40 44.59603 -92.94781 14305 ft 385 kts 126°
2026-04-30 14:40 44.58040 -92.91694 14865 ft 389 kts 126°
2026-04-30 14:40 44.56466 -92.88585 15393 ft 392 kts 126°
2026-04-30 14:41 44.54878 -92.85449 15934 ft 396 kts 126°
2026-04-30 14:41 44.53274 -92.82283 16473 ft 400 kts 126°
2026-04-30 14:41 44.51672 -92.79126 16990 ft 404 kts 126°
2026-04-30 14:41 44.50031 -92.75898 17514 ft 408 kts 126°
2026-04-30 14:42 44.48375 -92.72646 18035 ft 411 kts 126°
2026-04-30 14:42 44.46706 -92.69367 18531 ft 415 kts 126°
2026-04-30 14:42 44.45021 -92.66060 18977 ft 419 kts 126°
2026-04-30 14:42 44.43326 -92.62737 19439 ft 421 kts 127°
2026-04-30 14:43 44.41608 -92.59377 19870 ft 425 kts 127°
2026-04-30 14:43 44.39881 -92.56003 20286 ft 428 kts 127°
2026-04-30 14:43 44.38137 -92.52599 20640 ft 433 kts 127°
2026-04-30 14:43 44.36371 -92.49158 21019 ft 438 kts 127°
2026-04-30 14:44 44.34587 -92.45680 21421 ft 441 kts 127°
2026-04-30 14:44 44.32862 -92.42160 21809 ft 445 kts 124°
2026-04-30 14:44 44.31206 -92.38473 22204 ft 449 kts 122°
2026-04-30 14:44 44.29606 -92.34692 22592 ft 453 kts 121°
2026-04-30 14:45 44.28041 -92.30901 22978 ft 456 kts 121°
2026-04-30 14:45 44.26445 -92.27038 23376 ft 459 kts 121°
2026-04-30 14:45 44.24821 -92.23171 23750 ft 462 kts 122°
2026-04-30 14:45 44.23163 -92.19303 24075 ft 465 kts 122°
2026-04-30 14:46 44.21503 -92.15486 24407 ft 467 kts 122°
2026-04-30 14:46 44.19802 -92.11603 24708 ft 470 kts 123°
2026-04-30 14:46 44.18084 -92.07690 25005 ft 473 kts 123°
2026-04-30 14:46 44.16946 -92.05097 25214 ft 475 kts 123°
2026-04-30 14:47 44.14653 -91.99868 25646 ft 478 kts 123°
2026-04-30 14:47 44.12916 -91.95894 25975 ft 480 kts 123°
2026-04-30 14:47 44.11177 -91.91909 26295 ft 482 kts 123°
2026-04-30 14:47 44.09433 -91.87918 26636 ft 484 kts 123°
2026-04-30 14:48 44.07670 -91.83905 26940 ft 486 kts 123°
2026-04-30 14:48 44.05897 -91.79882 27247 ft 488 kts 123°
2026-04-30 14:48 44.04138 -91.75892 27550 ft 490 kts 123°
2026-04-30 14:48 44.02352 -91.71840 27852 ft 493 kts 123°
2026-04-30 14:49 44.00551 -91.67764 28096 ft 495 kts 123°
2026-04-30 14:49 43.98743 -91.63675 28358 ft 498 kts 123°
2026-04-30 14:49 43.96923 -91.59566 28638 ft 500 kts 123°
2026-04-30 14:49 43.95709 -91.56827 28818 ft 501 kts 123°
2026-04-30 14:50 43.91328 -91.47301 29457 ft 504 kts 130°
2026-04-30 14:50 43.89815 -91.44783 29630 ft 502 kts 136°
2026-04-30 14:51 43.84932 -91.37902 30127 ft 505 kts 138°
2026-04-30 14:51 43.82454 -91.34423 30373 ft 506 kts 138°
2026-04-30 14:51 43.77532 -91.27505 30950 ft 505 kts 138°
2026-04-30 14:52 43.75064 -91.24051 31260 ft 505 kts 138°
2026-04-30 14:52 43.70124 -91.17149 31863 ft 504 kts 138°
2026-04-30 14:52 43.67658 -91.13711 32196 ft 503 kts 138°
2026-04-30 14:53 43.62725 -91.06855 32806 ft 502 kts 138°
2026-04-30 14:53 43.60260 -91.03434 33043 ft 502 kts 138°
2026-04-30 14:54 43.55361 -90.96648 33598 ft 502 kts 138°
2026-04-30 14:54 43.50435 -90.89829 34146 ft 501 kts 138°
2026-04-30 14:55 43.45512 -90.83040 34572 ft 500 kts 138°
2026-04-30 14:55 43.43054 -90.79660 34778 ft 500 kts 138°
2026-04-30 14:55 43.38144 -90.72924 35077 ft 500 kts 138°
2026-04-30 14:56 43.33225 -90.66191 35102 ft 497 kts 138°
2026-04-30 14:57 43.25876 -90.56133 35100 ft 497 kts 139°
2026-04-30 14:58 43.16087 -90.42815 35100 ft 497 kts 139°
2026-04-30 14:58 43.08697 -90.32811 35104 ft 497 kts 139°
2026-04-30 15:00 42.96415 -90.16236 35085 ft 497 kts 139°
2026-04-30 15:01 42.86564 -90.03031 35091 ft 497 kts 140°
2026-04-30 15:01 42.77925 -89.95926 35096 ft 476 kts 169°
2026-04-30 15:02 42.71521 -89.94591 35085 ft 458 kts 188°
2026-04-30 15:03 42.55682 -89.95640 35080 ft 457 kts 190°
2026-04-30 15:04 42.39814 -89.96654 35082 ft 457 kts 190°
2026-04-30 15:06 42.23942 -89.97697 35101 ft 456 kts 191°
2026-04-30 15:07 42.11294 -89.98512 35092 ft 455 kts 191°
2026-04-30 15:08 41.98650 -89.99321 35074 ft 456 kts 191°
2026-04-30 15:09 41.82825 -90.00341 35098 ft 455 kts 191°
2026-04-30 15:10 41.70227 -90.01155 35099 ft 454 kts 191°
2026-04-30 15:11 41.51337 -90.02352 35117 ft 453 kts 191°
2026-04-30 15:13 41.35631 -90.03337 35126 ft 452 kts 191°
2026-04-30 15:14 41.13687 -90.04684 35126 ft 454 kts 188°
2026-04-30 15:16 40.97795 -90.00108 35120 ft 471 kts 174°
2026-04-30 15:17 40.85130 -89.95785 35102 ft 471 kts 174°
2026-04-30 15:19 40.59699 -89.87140 35123 ft 472 kts 174°